contact:dominique.lefevre@mio.osupytheas.fr, maurice.libes@osupytheas.fr, didier.mallarino@osupytheas.fr
Project:EMSO http://www.emso-fr.org/EMSO-France
Depth: 2436.0 m
Title:EMSO Ligure Ouest : Data MII capteur MICROCAT
DateTime_Computer,Latitude,Longitude,Temperature,Conductivity,Pressure,DateTime_Instrument
DateTime_Computer,Latitude,Longitude,degC,S m-1,dbar,DateTime_Instrument
2023-07-31T00:01:59Z,42.805,6.029,13.3052,4.60135,2470.661,2023-7-31T02:04:17Z
2023-07-31T00:05:02Z,42.805,6.029,13.3057,4.60138,2470.614,2023-7-31T02:07:20Z
2023-07-31T00:08:05Z,42.805,6.029,13.3052,4.60132,2470.614,2023-7-31T02:10:23Z
2023-07-31T00:11:08Z,42.805,6.029,13.3042,4.60117,2470.6,2023-7-31T02:13:26Z
2023-07-31T00:14:12Z,42.805,6.029,13.3041,4.60125,2470.624,2023-7-31T02:16:30Z
2023-07-31T00:17:15Z,42.805,6.029,13.3034,4.60116,2470.6,2023-7-31T02:19:33Z
2023-07-31T00:20:18Z,42.805,6.029,13.3048,4.60137,2470.624,2023-7-31T02:22:36Z
2023-07-31T00:23:21Z,42.805,6.029,13.3044,4.60123,2470.646,2023-7-31T02:25:39Z
2023-07-31T00:26:24Z,42.805,6.029,13.3053,4.60134,2470.624,2023-7-31T02:28:42Z
2023-07-31T00:29:27Z,42.805,6.029,13.3038,4.60127,2470.624,2023-7-31T02:31:45Z
2023-07-31T00:32:30Z,42.805,6.029,13.3045,4.60135,2470.6,2023-7-31T02:34:48Z
2023-07-31T00:35:33Z,42.805,6.029,13.3044,4.60151,2470.614,2023-7-31T02:37:51Z
2023-07-31T00:38:36Z,42.805,6.029,13.3054,4.60142,2470.646,2023-7-31T02:40:54Z
2023-07-31T00:41:39Z,42.805,6.029,13.3046,4.60149,2470.6,2023-7-31T02:43:57Z
2023-07-31T00:44:42Z,42.805,6.029,13.3039,4.60142,2470.637,2023-7-31T02:47:00Z
2023-07-31T00:47:46Z,42.805,6.029,13.3048,4.60129,2470.646,2023-7-31T02:50:04Z
2023-07-31T00:50:49Z,42.805,6.029,13.3044,4.60155,2470.6,2023-7-31T02:53:07Z
2023-07-31T00:53:52Z,42.805,6.029,13.3058,4.60143,2470.624,2023-7-31T02:56:10Z
2023-07-31T00:56:55Z,42.805,6.029,13.3044,4.60145,2470.624,2023-7-31T02:59:13Z
2023-07-31T00:59:58Z,42.805,6.029,13.3042,4.60160,2470.6,2023-7-31T03:02:16Z
2023-07-31T01:03:01Z,42.805,6.029,13.3069,4.60135,2470.637,2023-7-31T03:05:19Z
2023-07-31T01:06:04Z,42.805,6.029,13.3039,4.60142,2470.624,2023-7-31T03:08:22Z
2023-07-31T01:09:07Z,42.805,6.029,13.3036,4.60136,2470.637,2023-7-31T03:11:25Z
2023-07-31T01:12:10Z,42.805,6.029,13.3046,4.60141,2470.637,2023-7-31T03:14:28Z
2023-07-31T01:15:13Z,42.805,6.029,13.3038,4.60137,2470.637,2023-7-31T03:17:31Z
2023-07-31T01:18:16Z,42.805,6.029,13.3043,4.60137,2470.624,2023-7-31T03:20:34Z
2023-07-31T01:21:19Z,42.805,6.029,13.3037,4.60162,2470.637,2023-7-31T03:23:37Z
2023-07-31T01:24:23Z,42.805,6.029,13.3042,4.60144,2470.637,2023-7-31T03:26:41Z
2023-07-31T01:27:26Z,42.805,6.029,13.3037,4.60133,2470.646,2023-7-31T03:29:44Z
2023-07-31T01:30:29Z,42.805,6.029,13.3036,4.60161,2470.624,2023-7-31T03:32:47Z
2023-07-31T01:33:32Z,42.805,6.029,13.3042,4.60129,2470.624,2023-7-31T03:35:50Z
2023-07-31T01:36:35Z,42.805,6.029,13.3046,4.60149,2470.637,2023-7-31T03:38:53Z
2023-07-31T01:39:38Z,42.805,6.029,13.3049,4.60145,2470.624,2023-7-31T03:41:56Z
2023-07-31T01:42:41Z,42.805,6.029,13.3041,4.60145,2470.624,2023-7-31T03:44:59Z
2023-07-31T01:45:44Z,42.805,6.029,13.3044,4.60155,2470.637,2023-7-31T03:48:02Z
2023-07-31T01:48:47Z,42.805,6.029,13.3047,4.60153,2470.6,2023-7-31T03:51:05Z
2023-07-31T01:51:50Z,42.805,6.029,13.3038,4.60137,2470.624,2023-7-31T03:54:08Z
2023-07-31T01:54:53Z,42.805,6.029,13.3055,4.60175,2470.637,2023-7-31T03:57:11Z
2023-07-31T01:57:56Z,42.805,6.029,13.3049,4.60162,2470.661,2023-7-31T04:00:14Z
2023-07-31T02:01:00Z,42.805,6.029,13.3046,4.60158,2470.624,2023-7-31T04:03:18Z
2023-07-31T02:04:03Z,42.805,6.029,13.3059,4.60161,2470.624,2023-7-31T04:06:21Z
2023-07-31T02:07:06Z,42.805,6.029,13.3045,4.60151,2470.67,2023-7-31T04:09:24Z
2023-07-31T02:10:09Z,42.805,6.029,13.3054,4.60163,2470.6,2023-7-31T04:12:27Z
2023-07-31T02:13:12Z,42.805,6.029,13.3054,4.60159,2470.624,2023-7-31T04:15:30Z
2023-07-31T02:16:15Z,42.805,6.029,13.3047,4.60154,2470.646,2023-7-31T04:18:33Z
2023-07-31T02:19:18Z,42.805,6.029,13.3039,4.60141,2470.646,2023-7-31T04:21:36Z
2023-07-31T02:22:21Z,42.805,6.029,13.3039,4.60154,2470.646,2023-7-31T04:24:39Z
2023-07-31T02:25:24Z,42.805,6.029,13.3054,4.60156,2470.624,2023-7-31T04:27:42Z
2023-07-31T02:28:27Z,42.805,6.029,13.3045,4.60147,2470.624,2023-7-31T04:30:45Z
2023-07-31T02:31:30Z,42.805,6.029,13.3050,4.60152,2470.646,2023-7-31T04:33:48Z
2023-07-31T02:34:33Z,42.805,6.029,13.3058,4.60151,2470.684,2023-7-31T04:36:51Z
2023-07-31T02:37:37Z,42.805,6.029,13.3054,4.60152,2470.661,2023-7-31T04:39:55Z
2023-07-31T02:40:40Z,42.805,6.029,13.3047,4.60143,2470.707,2023-7-31T04:42:58Z
2023-07-31T02:43:43Z,42.805,6.029,13.3057,4.60151,2470.661,2023-7-31T04:46:01Z
2023-07-31T02:46:46Z,42.805,6.029,13.3061,4.60162,2470.646,2023-7-31T04:49:04Z
2023-07-31T02:49:49Z,42.805,6.029,13.3061,4.60156,2470.67,2023-7-31T04:52:07Z
2023-07-31T02:52:52Z,42.805,6.029,13.3060,4.60164,2470.67,2023-7-31T04:55:10Z
2023-07-31T02:55:55Z,42.805,6.029,13.3046,4.60164,2470.684,2023-7-31T04:58:13Z
2023-07-31T02:58:58Z,42.805,6.029,13.3056,4.60138,2470.67,2023-7-31T05:01:16Z
2023-07-31T03:02:01Z,42.805,6.029,13.3047,4.60133,2470.624,2023-7-31T05:04:19Z
2023-07-31T03:05:04Z,42.805,6.029,13.3073,4.60132,2470.661,2023-7-31T05:07:22Z
2023-07-31T03:08:07Z,42.805,6.029,13.3040,4.60121,2470.661,2023-7-31T05:10:25Z
2023-07-31T03:11:10Z,42.805,6.029,13.3036,4.60143,2470.684,2023-7-31T05:13:28Z
2023-07-31T03:14:14Z,42.805,6.029,13.3046,4.60145,2470.67,2023-7-31T05:16:32Z
2023-07-31T03:17:17Z,42.805,6.029,13.3046,4.60150,2470.661,2023-7-31T05:19:35Z
2023-07-31T03:20:20Z,42.805,6.029,13.3054,4.60132,2470.646,2023-7-31T05:22:38Z
2023-07-31T03:23:23Z,42.805,6.029,13.3044,4.60155,2470.646,2023-7-31T05:25:41Z
2023-07-31T03:26:26Z,42.805,6.029,13.3046,4.60141,2470.684,2023-7-31T05:28:44Z
2023-07-31T03:29:29Z,42.805,6.029,13.3046,4.60162,2470.684,2023-7-31T05:31:47Z
2023-07-31T03:32:32Z,42.805,6.029,13.3050,4.60152,2470.67,2023-7-31T05:34:50Z
2023-07-31T03:35:35Z,42.805,6.029,13.3048,4.60163,2470.67,2023-7-31T05:37:53Z
2023-07-31T03:38:38Z,42.805,6.029,13.3058,4.60165,2470.693,2023-7-31T05:40:56Z
2023-07-31T03:41:41Z,42.805,6.029,13.3047,4.60152,2470.693,2023-7-31T05:43:59Z
2023-07-31T03:44:44Z,42.805,6.029,13.3056,4.60155,2470.67,2023-7-31T05:47:02Z
2023-07-31T03:47:47Z,42.805,6.029,13.3051,4.60155,2470.67,2023-7-31T05:50:05Z
2023-07-31T03:50:51Z,42.805,6.029,13.3048,4.60160,2470.693,2023-7-31T05:53:09Z
2023-07-31T03:53:54Z,42.805,6.029,13.3050,4.60147,2470.693,2023-7-31T05:56:12Z
2023-07-31T03:56:57Z,42.805,6.029,13.3047,4.60176,2470.693,2023-7-31T05:59:15Z
2023-07-31T04:00:00Z,42.805,6.029,13.3048,4.60180,2470.67,2023-7-31T06:02:18Z
2023-07-31T04:03:03Z,42.805,6.029,13.3051,4.60187,2470.73,2023-7-31T06:05:21Z
2023-07-31T04:06:06Z,42.805,6.029,13.3051,4.60147,2470.707,2023-7-31T06:08:24Z
2023-07-31T04:09:09Z,42.805,6.029,13.3047,4.60156,2470.693,2023-7-31T06:11:27Z
2023-07-31T04:12:12Z,42.805,6.029,13.3054,4.60165,2470.707,2023-7-31T06:14:30Z
2023-07-31T04:15:15Z,42.805,6.029,13.3070,4.60175,2470.73,2023-7-31T06:17:33Z
2023-07-31T04:18:18Z,42.805,6.029,13.3047,4.60178,2470.646,2023-7-31T06:20:36Z
2023-07-31T04:21:21Z,42.805,6.029,13.3045,4.60187,2470.693,2023-7-31T06:23:39Z
2023-07-31T04:24:24Z,42.805,6.029,13.3067,4.60157,2470.693,2023-7-31T06:26:42Z
2023-07-31T04:27:28Z,42.805,6.029,13.3048,4.60144,2470.693,2023-7-31T06:29:46Z
2023-07-31T04:30:32Z,42.805,6.029,13.3050,4.60167,2470.67,2023-7-31T06:32:50Z
2023-07-31T04:33:35Z,42.805,6.029,13.3067,4.60159,2470.684,2023-7-31T06:35:53Z
2023-07-31T04:36:38Z,42.805,6.029,13.3065,4.60181,2470.693,2023-7-31T06:38:56Z
2023-07-31T04:39:41Z,42.805,6.029,13.3051,4.60186,2470.707,2023-7-31T06:41:59Z
2023-07-31T04:42:44Z,42.805,6.029,13.3051,4.60170,2470.693,2023-7-31T06:45:02Z
2023-07-31T04:45:47Z,42.805,6.029,13.3067,4.60159,2470.693,2023-7-31T06:48:05Z
2023-07-31T04:48:50Z,42.805,6.029,13.3070,4.60176,2470.707,2023-7-31T06:51:08Z
2023-07-31T04:51:53Z,42.805,6.029,13.3048,4.60148,2470.707,2023-7-31T06:54:11Z
2023-07-31T04:54:56Z,42.805,6.029,13.3045,4.60142,2470.693,2023-7-31T06:57:14Z
2023-07-31T04:57:59Z,42.805,6.029,13.3057,4.60157,2470.73,2023-7-31T07:00:17Z
2023-07-31T05:01:02Z,42.805,6.029,13.3052,4.60182,2470.693,2023-7-31T07:03:21Z
2023-07-31T05:04:06Z,42.805,6.029,13.3053,4.60177,2470.693,2023-7-31T07:06:24Z
2023-07-31T05:07:09Z,42.805,6.029,13.3041,4.60174,2470.684,2023-7-31T07:09:27Z
2023-07-31T05:10:12Z,42.805,6.029,13.3052,4.60168,2470.684,2023-7-31T07:12:30Z
2023-07-31T05:13:15Z,42.805,6.029,13.3047,4.60152,2470.707,2023-7-31T07:15:33Z
2023-07-31T05:16:18Z,42.805,6.029,13.3041,4.60163,2470.717,2023-7-31T07:18:36Z
2023-07-31T05:19:21Z,42.805,6.029,13.3069,4.60170,2470.74,2023-7-31T07:21:39Z
2023-07-31T05:22:24Z,42.805,6.029,13.3050,4.60144,2470.67,2023-7-31T07:24:42Z
2023-07-31T05:25:27Z,42.805,6.029,13.3046,4.60144,2470.717,2023-7-31T07:27:45Z
2023-07-31T05:28:30Z,42.805,6.029,13.3055,4.60167,2470.74,2023-7-31T07:30:48Z
2023-07-31T05:31:33Z,42.805,6.029,13.3066,4.60163,2470.707,2023-7-31T07:33:51Z
2023-07-31T05:34:36Z,42.805,6.029,13.3054,4.60176,2470.74,2023-7-31T07:36:54Z
2023-07-31T05:37:40Z,42.805,6.029,13.3063,4.60137,2470.707,2023-7-31T07:39:58Z
2023-07-31T05:40:43Z,42.805,6.029,13.3056,4.60120,2470.693,2023-7-31T07:43:01Z
2023-07-31T05:43:46Z,42.805,6.029,13.3079,4.60137,2470.754,2023-7-31T07:46:04Z
2023-07-31T05:46:49Z,42.805,6.029,13.3054,4.60157,2470.693,2023-7-31T07:49:07Z
2023-07-31T05:49:52Z,42.805,6.029,13.3062,4.60209,2470.693,2023-7-31T07:52:10Z
2023-07-31T05:52:55Z,42.805,6.029,13.3050,4.60155,2470.717,2023-7-31T07:55:13Z
2023-07-31T05:55:58Z,42.805,6.029,13.3058,4.60192,2470.693,2023-7-31T07:58:16Z
2023-07-31T05:59:01Z,42.805,6.029,13.3046,4.60183,2470.684,2023-7-31T08:01:19Z
2023-07-31T06:02:04Z,42.805,6.029,13.3055,4.60183,2470.693,2023-7-31T08:04:22Z
2023-07-31T06:05:07Z,42.805,6.029,13.3047,4.60163,2470.717,2023-7-31T08:07:25Z
2023-07-31T06:08:10Z,42.805,6.029,13.3049,4.60194,2470.754,2023-7-31T08:10:28Z
2023-07-31T06:11:13Z,42.805,6.029,13.3049,4.60184,2470.73,2023-7-31T08:13:31Z
2023-07-31T06:14:16Z,42.805,6.029,13.3061,4.60141,2470.73,2023-7-31T08:16:35Z
2023-07-31T06:17:20Z,42.805,6.029,13.3060,4.60147,2470.73,2023-7-31T08:19:38Z
2023-07-31T06:20:23Z,42.805,6.029,13.3041,4.60127,2470.73,2023-7-31T08:22:41Z
2023-07-31T06:23:26Z,42.805,6.029,13.3067,4.60123,2470.707,2023-7-31T08:25:44Z
2023-07-31T06:26:29Z,42.805,6.029,13.3072,4.60144,2470.67,2023-7-31T08:28:47Z
2023-07-31T06:29:32Z,42.805,6.029,13.3088,4.60167,2470.707,2023-7-31T08:31:50Z
2023-07-31T06:32:36Z,42.805,6.029,13.3072,4.60127,2470.707,2023-7-31T08:34:54Z
2023-07-31T06:35:39Z,42.805,6.029,13.3073,4.60105,2470.693,2023-7-31T08:37:57Z
2023-07-31T06:38:42Z,42.805,6.029,13.3073,4.60137,2470.707,2023-7-31T08:41:00Z
2023-07-31T06:41:45Z,42.805,6.029,13.3069,4.60156,2470.717,2023-7-31T08:44:03Z
2023-07-31T06:44:48Z,42.805,6.029,13.3060,4.60122,2470.717,2023-7-31T08:47:06Z
2023-07-31T06:47:51Z,42.805,6.029,13.3067,4.60141,2470.754,2023-7-31T08:50:09Z
2023-07-31T06:50:54Z,42.805,6.029,13.3075,4.60114,2470.717,2023-7-31T08:53:12Z
2023-07-31T06:53:57Z,42.805,6.029,13.3069,4.60122,2470.693,2023-7-31T08:56:15Z
2023-07-31T06:57:00Z,42.805,6.029,13.3067,4.60107,2470.693,2023-7-31T08:59:18Z
2023-07-31T07:00:03Z,42.805,6.029,13.3036,4.60097,2470.73,2023-7-31T09:02:21Z
2023-07-31T07:03:07Z,42.805,6.029,13.3061,4.60110,2470.693,2023-7-31T09:05:25Z
2023-07-31T07:06:10Z,42.805,6.029,13.3036,4.60101,2470.684,2023-7-31T09:08:28Z
2023-07-31T07:09:13Z,42.805,6.029,13.3046,4.60115,2470.693,2023-7-31T09:11:31Z
2023-07-31T07:12:16Z,42.805,6.029,13.3039,4.60110,2470.73,2023-7-31T09:14:34Z
2023-07-31T07:15:19Z,42.805,6.029,13.3046,4.60138,2470.73,2023-7-31T09:17:37Z
2023-07-31T07:18:22Z,42.805,6.029,13.3039,4.60111,2470.693,2023-7-31T09:20:40Z
2023-07-31T07:21:25Z,42.805,6.029,13.3053,4.60129,2470.693,2023-7-31T09:23:43Z
2023-07-31T07:24:28Z,42.805,6.029,13.3043,4.60090,2470.707,2023-7-31T09:26:46Z
2023-07-31T07:27:31Z,42.805,6.029,13.3057,4.60111,2470.67,2023-7-31T09:29:49Z
2023-07-31T07:30:34Z,42.805,6.029,13.3041,4.60093,2470.693,2023-7-31T09:32:52Z
2023-07-31T07:33:37Z,42.805,6.029,13.3023,4.60098,2470.684,2023-7-31T09:35:55Z
2023-07-31T07:36:40Z,42.805,6.029,13.3025,4.60099,2470.684,2023-7-31T09:38:58Z
2023-07-31T07:39:44Z,42.805,6.029,13.3026,4.60097,2470.67,2023-7-31T09:42:02Z
2023-07-31T07:42:47Z,42.805,6.029,13.3028,4.60094,2470.693,2023-7-31T09:45:05Z
2023-07-31T07:45:50Z,42.805,6.029,13.3029,4.60087,2470.684,2023-7-31T09:48:08Z
2023-07-31T07:48:53Z,42.805,6.029,13.3028,4.60090,2470.707,2023-7-31T09:51:11Z
2023-07-31T07:51:56Z,42.805,6.029,13.3025,4.60088,2470.67,2023-7-31T09:54:14Z
2023-07-31T07:54:59Z,42.805,6.029,13.3027,4.60088,2470.684,2023-7-31T09:57:17Z
2023-07-31T07:58:02Z,42.805,6.029,13.3029,4.60094,2470.67,2023-7-31T10:00:20Z
2023-07-31T08:01:05Z,42.805,6.029,13.3026,4.60088,2470.693,2023-7-31T10:03:23Z
2023-07-31T08:04:08Z,42.805,6.029,13.3026,4.60092,2470.684,2023-7-31T10:06:26Z
2023-07-31T08:07:11Z,42.805,6.029,13.3026,4.60086,2470.67,2023-7-31T10:09:29Z
2023-07-31T08:10:14Z,42.805,6.029,13.3028,4.60087,2470.646,2023-7-31T10:12:32Z
2023-07-31T08:13:17Z,42.805,6.029,13.3026,4.60087,2470.684,2023-7-31T10:15:35Z
2023-07-31T08:16:20Z,42.805,6.029,13.3024,4.60088,2470.646,2023-7-31T10:18:39Z
2023-07-31T08:19:24Z,42.805,6.029,13.3027,4.60086,2470.646,2023-7-31T10:21:42Z
2023-07-31T08:22:27Z,42.805,6.029,13.3030,4.60090,2470.646,2023-7-31T10:24:45Z
2023-07-31T08:25:30Z,42.805,6.029,13.3024,4.60087,2470.707,2023-7-31T10:27:48Z
2023-07-31T08:28:33Z,42.805,6.029,13.3028,4.60091,2470.637,2023-7-31T10:30:51Z
2023-07-31T08:31:34Z,42.805,6.029,13.3027,4.60096,2470.646,2023-7-31T10:33:52Z
2023-07-31T08:34:37Z,42.805,6.029,13.3027,4.60088,2470.67,2023-7-31T10:36:55Z
2023-07-31T08:37:41Z,42.805,6.029,13.3028,4.60088,2470.646,2023-7-31T10:39:59Z
2023-07-31T08:40:44Z,42.805,6.029,13.3027,4.60089,2470.646,2023-7-31T10:43:02Z
2023-07-31T08:43:47Z,42.805,6.029,13.3027,4.60087,2470.646,2023-7-31T10:46:05Z
2023-07-31T08:46:50Z,42.805,6.029,13.3027,4.60087,2470.624,2023-7-31T10:49:08Z
2023-07-31T08:49:53Z,42.805,6.029,13.3026,4.60092,2470.646,2023-7-31T10:52:11Z
2023-07-31T08:52:56Z,42.805,6.029,13.3026,4.60088,2470.637,2023-7-31T10:55:14Z
2023-07-31T08:55:59Z,42.805,6.029,13.3029,4.60090,2470.624,2023-7-31T10:58:17Z
2023-07-31T08:59:02Z,42.805,6.029,13.3026,4.60087,2470.646,2023-7-31T11:01:20Z
2023-07-31T09:02:05Z,42.805,6.029,13.3026,4.60088,2470.646,2023-7-31T11:04:23Z
2023-07-31T09:05:08Z,42.805,6.029,13.3024,4.60094,2470.624,2023-7-31T11:07:26Z
2023-07-31T09:08:11Z,42.805,6.029,13.3024,4.60087,2470.646,2023-7-31T11:10:29Z
2023-07-31T09:11:15Z,42.805,6.029,13.3030,4.60088,2470.624,2023-7-31T11:13:33Z
2023-07-31T09:14:18Z,42.805,6.029,13.3029,4.60087,2470.637,2023-7-31T11:16:36Z
2023-07-31T09:17:21Z,42.805,6.029,13.3028,4.60087,2470.624,2023-7-31T11:19:39Z
2023-07-31T09:20:24Z,42.805,6.029,13.3025,4.60101,2470.614,2023-7-31T11:22:42Z
2023-07-31T09:23:27Z,42.805,6.029,13.3029,4.60087,2470.553,2023-7-31T11:25:45Z
2023-07-31T09:26:30Z,42.805,6.029,13.3027,4.60088,2470.637,2023-7-31T11:28:48Z
2023-07-31T09:29:33Z,42.805,6.029,13.3026,4.60087,2470.6,2023-7-31T11:31:51Z
2023-07-31T09:32:36Z,42.805,6.029,13.3029,4.60086,2470.6,2023-7-31T11:34:54Z
2023-07-31T09:35:39Z,42.805,6.029,13.3029,4.60085,2470.6,2023-7-31T11:37:57Z
2023-07-31T09:38:42Z,42.805,6.029,13.3026,4.60090,2470.6,2023-7-31T11:41:00Z
2023-07-31T09:41:45Z,42.805,6.029,13.3024,4.60087,2470.6,2023-7-31T11:44:03Z
2023-07-31T09:44:48Z,42.805,6.029,13.3029,4.60087,2470.614,2023-7-31T11:47:07Z
2023-07-31T09:47:52Z,42.805,6.029,13.3029,4.60087,2470.577,2023-7-31T11:50:10Z
2023-07-31T09:50:55Z,42.805,6.029,13.3026,4.60087,2470.6,2023-7-31T11:53:13Z
2023-07-31T09:53:58Z,42.805,6.029,13.3028,4.60087,2470.6,2023-7-31T11:56:16Z
2023-07-31T09:57:01Z,42.805,6.029,13.3029,4.60086,2470.591,2023-7-31T11:59:19Z
2023-07-31T10:00:04Z,42.805,6.029,13.3029,4.60087,2470.614,2023-7-31T12:02:22Z
2023-07-31T10:03:07Z,42.805,6.029,13.3025,4.60090,2470.614,2023-7-31T12:05:25Z
2023-07-31T10:06:10Z,42.805,6.029,13.3031,4.60092,2470.6,2023-7-31T12:08:28Z
2023-07-31T10:09:13Z,42.805,6.029,13.3027,4.60086,2470.577,2023-7-31T12:11:31Z
2023-07-31T10:12:16Z,42.805,6.029,13.3025,4.60086,2470.577,2023-7-31T12:14:34Z
2023-07-31T10:15:19Z,42.805,6.029,13.3029,4.60086,2470.577,2023-7-31T12:17:37Z
2023-07-31T10:18:22Z,42.805,6.029,13.3025,4.60088,2470.553,2023-7-31T12:20:40Z
2023-07-31T10:21:26Z,42.805,6.029,13.3029,4.60092,2470.6,2023-7-31T12:23:44Z
2023-07-31T10:24:29Z,42.805,6.029,13.3028,4.60085,2470.567,2023-7-31T12:26:47Z
2023-07-31T10:27:32Z,42.805,6.029,13.3024,4.60084,2470.614,2023-7-31T12:29:50Z
2023-07-31T10:30:33Z,42.805,6.029,13.3028,4.60085,2470.591,2023-7-31T12:32:51Z
2023-07-31T10:33:36Z,42.805,6.029,13.3028,4.60087,2470.591,2023-7-31T12:35:54Z
2023-07-31T10:36:39Z,42.805,6.029,13.3026,4.60087,2470.563,2023-7-31T12:38:57Z
2023-07-31T10:39:42Z,42.805,6.029,13.3030,4.60084,2470.553,2023-7-31T12:42:00Z
2023-07-31T10:42:45Z,42.805,6.029,13.3023,4.60090,2470.567,2023-7-31T12:45:03Z
2023-07-31T10:45:48Z,42.805,6.029,13.3029,4.60089,2470.553,2023-7-31T12:48:06Z
2023-07-31T10:48:52Z,42.805,6.029,13.3029,4.60087,2470.553,2023-7-31T12:51:10Z
2023-07-31T10:51:55Z,42.805,6.029,13.3025,4.60087,2470.591,2023-7-31T12:54:13Z
2023-07-31T10:54:58Z,42.805,6.029,13.3033,4.60085,2470.577,2023-7-31T12:57:16Z
2023-07-31T10:58:01Z,42.805,6.029,13.3026,4.60089,2470.544,2023-7-31T13:00:19Z
2023-07-31T11:01:04Z,42.805,6.029,13.3025,4.60087,2470.553,2023-7-31T13:03:22Z
2023-07-31T11:04:07Z,42.805,6.029,13.3029,4.60085,2470.553,2023-7-31T13:06:25Z
2023-07-31T11:07:10Z,42.805,6.029,13.3029,4.60087,2470.553,2023-7-31T13:09:28Z
2023-07-31T11:10:13Z,42.805,6.029,13.3024,4.60086,2470.553,2023-7-31T13:12:31Z
2023-07-31T11:13:16Z,42.805,6.029,13.3030,4.60085,2470.567,2023-7-31T13:15:34Z
2023-07-31T11:16:19Z,42.805,6.029,13.3026,4.60087,2470.553,2023-7-31T13:18:37Z
2023-07-31T11:19:22Z,42.805,6.029,13.3022,4.60086,2470.553,2023-7-31T13:21:40Z
2023-07-31T11:22:25Z,42.805,6.029,13.3029,4.60087,2470.553,2023-7-31T13:24:43Z
2023-07-31T11:25:29Z,42.805,6.029,13.3028,4.60085,2470.553,2023-7-31T13:27:47Z
2023-07-31T11:28:32Z,42.805,6.029,13.3025,4.60087,2470.591,2023-7-31T13:30:50Z
2023-07-31T11:31:35Z,42.805,6.029,13.3027,4.60088,2470.553,2023-7-31T13:33:53Z
2023-07-31T11:34:38Z,42.805,6.029,13.3026,4.60086,2470.553,2023-7-31T13:36:56Z
2023-07-31T11:37:41Z,42.805,6.029,13.3029,4.60087,2470.567,2023-7-31T13:39:59Z
2023-07-31T11:40:44Z,42.805,6.029,13.3026,4.60086,2470.544,2023-7-31T13:43:02Z
2023-07-31T11:43:47Z,42.805,6.029,13.3026,4.60084,2470.544,2023-7-31T13:46:05Z
2023-07-31T11:46:50Z,42.805,6.029,13.3029,4.60086,2470.567,2023-7-31T13:49:08Z
2023-07-31T11:49:53Z,42.805,6.029,13.3031,4.60086,2470.493,2023-7-31T13:52:11Z
2023-07-31T11:52:56Z,42.805,6.029,13.3029,4.60087,2470.567,2023-7-31T13:55:14Z
2023-07-31T11:55:59Z,42.805,6.029,13.3026,4.60086,2470.53,2023-7-31T13:58:17Z
2023-07-31T11:59:02Z,42.805,6.029,13.3031,4.60086,2470.553,2023-7-31T14:01:20Z
2023-07-31T12:02:06Z,42.805,6.029,13.3026,4.60086,2470.553,2023-7-31T14:04:24Z
2023-07-31T12:05:09Z,42.805,6.029,13.3029,4.60085,2470.544,2023-7-31T14:07:27Z
2023-07-31T12:08:12Z,42.805,6.029,13.3026,4.60087,2470.507,2023-7-31T14:10:30Z
2023-07-31T12:11:15Z,42.805,6.029,13.3026,4.60084,2470.544,2023-7-31T14:13:33Z
2023-07-31T12:14:18Z,42.805,6.029,13.3029,4.60087,2470.553,2023-7-31T14:16:36Z
2023-07-31T12:17:21Z,42.805,6.029,13.3029,4.60086,2470.567,2023-7-31T14:19:39Z
2023-07-31T12:20:24Z,42.805,6.029,13.3026,4.60086,2470.577,2023-7-31T14:22:42Z
2023-07-31T12:23:27Z,42.805,6.029,13.3029,4.60087,2470.567,2023-7-31T14:25:45Z
2023-07-31T12:26:30Z,42.805,6.029,13.3028,4.60086,2470.567,2023-7-31T14:28:48Z
2023-07-31T12:29:33Z,42.805,6.029,13.3032,4.60085,2470.553,2023-7-31T14:31:51Z
2023-07-31T12:32:36Z,42.805,6.029,13.3029,4.60085,2470.53,2023-7-31T14:34:54Z
2023-07-31T12:35:39Z,42.805,6.029,13.3028,4.60088,2470.553,2023-7-31T14:37:58Z
2023-07-31T12:38:43Z,42.805,6.029,13.3029,4.60084,2470.544,2023-7-31T14:41:01Z
2023-07-31T12:41:46Z,42.805,6.029,13.3026,4.60085,2470.53,2023-7-31T14:44:04Z
2023-07-31T12:44:49Z,42.805,6.029,13.3028,4.60085,2470.577,2023-7-31T14:47:07Z
2023-07-31T12:47:52Z,42.805,6.029,13.3029,4.60087,2470.567,2023-7-31T14:50:10Z
2023-07-31T12:50:55Z,42.805,6.029,13.3026,4.60089,2470.53,2023-7-31T14:53:13Z
2023-07-31T12:53:58Z,42.805,6.029,13.3026,4.60088,2470.567,2023-7-31T14:56:16Z
2023-07-31T12:57:01Z,42.805,6.029,13.3029,4.60085,2470.553,2023-7-31T14:59:19Z
2023-07-31T13:00:04Z,42.805,6.029,13.3028,4.60087,2470.553,2023-7-31T15:02:22Z
2023-07-31T13:03:07Z,42.805,6.029,13.3022,4.60085,2470.567,2023-7-31T15:05:25Z
2023-07-31T13:06:10Z,42.805,6.029,13.3027,4.60085,2470.553,2023-7-31T15:08:28Z
2023-07-31T13:09:13Z,42.805,6.029,13.3027,4.60087,2470.53,2023-7-31T15:11:31Z
2023-07-31T13:12:17Z,42.805,6.029,13.3025,4.60086,2470.567,2023-7-31T15:14:35Z
2023-07-31T13:15:20Z,42.805,6.029,13.3029,4.60087,2470.553,2023-7-31T15:17:38Z
2023-07-31T13:18:23Z,42.805,6.029,13.3028,4.60085,2470.567,2023-7-31T15:20:41Z
2023-07-31T13:21:26Z,42.805,6.029,13.3027,4.60094,2470.553,2023-7-31T15:23:44Z
2023-07-31T13:24:29Z,42.805,6.029,13.3031,4.60088,2470.53,2023-7-31T15:26:47Z
2023-07-31T13:27:32Z,42.805,6.029,13.3025,4.60086,2470.553,2023-7-31T15:29:50Z
2023-07-31T13:30:35Z,42.805,6.029,13.3029,4.60086,2470.53,2023-7-31T15:32:53Z
2023-07-31T13:33:38Z,42.805,6.029,13.3038,4.60110,2470.591,2023-7-31T15:35:56Z
2023-07-31T13:36:41Z,42.805,6.029,13.3032,4.60087,2470.577,2023-7-31T15:38:59Z
2023-07-31T13:39:44Z,42.805,6.029,13.3031,4.60085,2470.567,2023-7-31T15:42:02Z
2023-07-31T13:42:47Z,42.805,6.029,13.3033,4.60089,2470.577,2023-7-31T15:45:05Z
2023-07-31T13:45:50Z,42.805,6.029,13.3032,4.60087,2470.577,2023-7-31T15:48:09Z
2023-07-31T13:48:54Z,42.805,6.029,13.3027,4.60090,2470.553,2023-7-31T15:51:12Z
2023-07-31T13:51:57Z,42.805,6.029,13.3031,4.60086,2470.539,2023-7-31T15:54:15Z
2023-07-31T13:55:00Z,42.805,6.029,13.3034,4.60090,2470.591,2023-7-31T15:57:18Z
2023-07-31T13:58:03Z,42.805,6.029,13.3029,4.60087,2470.577,2023-7-31T16:00:21Z
2023-07-31T14:01:06Z,42.805,6.029,13.3026,4.60087,2470.577,2023-7-31T16:03:24Z
2023-07-31T14:04:09Z,42.805,6.029,13.3029,4.60084,2470.624,2023-7-31T16:06:27Z
2023-07-31T14:07:12Z,42.805,6.029,13.3034,4.60091,2470.591,2023-7-31T16:09:30Z
2023-07-31T14:10:15Z,42.805,6.029,13.3035,4.60086,2470.6,2023-7-31T16:12:33Z
2023-07-31T14:13:18Z,42.805,6.029,13.3047,4.60108,2470.6,2023-7-31T16:15:36Z
2023-07-31T14:16:21Z,42.805,6.029,13.3047,4.60096,2470.6,2023-7-31T16:18:39Z
2023-07-31T14:19:24Z,42.805,6.029,13.3043,4.60109,2470.6,2023-7-31T16:21:42Z
2023-07-31T14:22:28Z,42.805,6.029,13.3027,4.60087,2470.624,2023-7-31T16:24:46Z
2023-07-31T14:25:31Z,42.805,6.029,13.3031,4.60091,2470.637,2023-7-31T16:27:49Z
2023-07-31T14:28:34Z,42.805,6.029,13.3032,4.60087,2470.624,2023-7-31T16:30:52Z
2023-07-31T14:31:36Z,42.805,6.029,13.3034,4.60110,2470.624,2023-7-31T16:33:54Z
2023-07-31T14:34:39Z,42.805,6.029,13.3050,4.60089,2470.624,2023-7-31T16:36:57Z
2023-07-31T14:37:42Z,42.805,6.029,13.3031,4.60116,2470.614,2023-7-31T16:40:00Z
2023-07-31T14:40:45Z,42.805,6.029,13.3048,4.60104,2470.6,2023-7-31T16:43:03Z
2023-07-31T14:43:48Z,42.805,6.029,13.3049,4.60103,2470.6,2023-7-31T16:46:06Z
2023-07-31T14:46:51Z,42.805,6.029,13.3042,4.60112,2470.624,2023-7-31T16:49:09Z
2023-07-31T14:49:54Z,42.805,6.029,13.3034,4.60091,2470.624,2023-7-31T16:52:12Z
2023-07-31T14:52:57Z,42.805,6.029,13.3048,4.60106,2470.624,2023-7-31T16:55:15Z
2023-07-31T14:56:00Z,42.805,6.029,13.3038,4.60117,2470.646,2023-7-31T16:58:18Z
2023-07-31T14:59:03Z,42.805,6.029,13.3046,4.60119,2470.624,2023-7-31T17:01:22Z
2023-07-31T15:02:07Z,42.805,6.029,13.3044,4.60131,2470.624,2023-7-31T17:04:25Z
2023-07-31T15:05:10Z,42.805,6.029,13.3042,4.60109,2470.624,2023-7-31T17:07:28Z
2023-07-31T15:08:13Z,42.805,6.029,13.3037,4.60102,2470.637,2023-7-31T17:10:31Z
2023-07-31T15:11:16Z,42.805,6.029,13.3048,4.60126,2470.661,2023-7-31T17:13:34Z
2023-07-31T15:14:19Z,42.805,6.029,13.3034,4.60087,2470.646,2023-7-31T17:16:37Z